MOLNIYA 1-52 (13012 NORAD) Tracking and Keplerian Element Data

This shows tracking and keplerian element data for the satellite.

Feedback or suggestion? Click here.




ElementValue
Catalog13012
NameMOLNIYA 1-52
Epoch Orbit31581
Epoch Day31.2661756
Epoch Year2025
RAAN145.5735
Inclination61.4818
Eccentricity0.7227543
Argument of Perigee267.4279
Mean Anonmoly16.02
Mean Motion2.0055265
Decay Rate-1.176E-05
L11 13012U 81123A 25031.26617560 -.00001176 00000+0 -58099-2 0 9995
L22 13012 61.4818 145.5735 7227543 267.4279 16.0200 2.00552650315816



Live tracking and technical data element details for MOLNIYA 1-52 (NORAD 13012). MOLNIYA 1-52 can be tracked NOW for your location showing map with azimuth and elevation plus other details from your city location.







IsCatalogInMostPopularTable: catalog: 13012, numindb: 307
Update: records affected: 1



GetName: 13012 MOLNIYA 1-52

Hit Count: updated at: Thu, 15 May 2025 18:55:58 GMT